DL8NDG-13 Weather Reports


Display with metric or nautical units.
time (UTC)temp
F
wind
direction
speed
MPH
gust
MPH
rain 1hr
in
rain 24hr
in
rain mn
in
humidity
%
barometer
mb
20260505083028 66 13 0.0 0.0 0.00 0.00 0.00 67 1006.5
20260505081535 66 15 0.0 0.0 0.00 0.00 0.00 70 1006.5
20260505080043 65 15 0.0 0.0 0.00 0.00 0.00 69 1006.7
20260505074520 64 11 0.0 0.0 0.00 0.00 0.00 71 1006.7
20260505073017 64 10 0.0 0.0 0.00 0.00 0.00 73 1006.9
20260505071510 63 286 0.0 0.0 0.00 0.00 0.00 74 1007.3
20260505070011 62 266 0.0 0.0 0.00 0.00 0.00 77 1007.3
20260505064508 61 265 0.0 0.0 0.00 0.00 0.00 79 1007.2
20260505063006 60 262 0.0 0.0 0.00 0.00 0.00 80 1007.4
20260505061509 59 258 0.0 0.0 0.00 0.00 0.00 80 1007.5
20260505060003 59 261 0.0 0.0 0.00 0.00 0.00 81 1007.6
20260505054602 59 262 0.0 0.0 0.00 0.00 0.00 80 1007.4
20260505053056 59 266 0.0 0.0 0.00 0.00 0.00 79 1007.5
20260505051555 59 13 0.0 0.0 0.00 0.00 0.00 80 1007.5
20260505050124 58 15 0.0 0.0 0.00 0.00 0.00 80 1007.5
20260505041601 57 360 0.0 0.0 0.00 0.00 0.00 79 1007.6
20260505040054 58 295 0.0 0.0 0.00 0.00 0.00 79 1007.6
20260505034543 58 273 0.0 0.0 0.00 0.00 0.00 79 1007.6
20260505033046 58 272 0.0 0.0 0.00 0.00 0.00 79 1007.5
20260505031546 58 271 0.0 0.0 0.00 0.00 0.00 78 1007.7
20260505030041 58 271 0.0 0.0 0.00 0.00 0.00 78 1007.8
20260505024535 58 272 0.0 0.0 0.00 0.00 0.00 77 1008.0
20260505023039 59 271 0.0 0.0 0.00 0.00 0.00 77 1008.2
20260505021531 59 269 0.0 0.0 0.00 0.00 0.00 76 1008.3
20260505020034 59 292 0.0 0.0 0.00 0.00 0.00 76 1008.4
20260505014529 59 293 0.0 0.0 0.00 0.00 0.00 75 1008.3
20260505013027 60 273 0.0 0.0 0.00 0.00 0.00 75 1008.3
20260505011530 60 272 0.0 0.0 0.00 0.00 0.00 74 1008.4
20260505010023 60 266 0.0 0.0 0.00 0.00 0.00 73 1008.8
20260505004532 60 259 0.0 0.0 0.00 0.00 0.00 73 1008.9
20260505003017 61 257 0.0 0.0 0.00 0.00 0.00 72 1009.2
20260505001515 61 259 0.0 0.0 0.00 0.00 0.00 71 1009.4
20260505000023 61 259 0.0 0.0 0.00 0.00 0.00 70 1009.4
20260504234513 61 295 0.0 0.0 0.00 0.00 0.00 70 1009.4
20260504233011 62 280 0.0 0.0 0.00 0.00 0.00 69 1009.5
20260504231509 62 279 0.0 0.0 0.00 0.00 0.00 69 1009.6
20260504230015 62 259 0.0 0.0 0.00 0.00 0.00 69 1009.7
20260504224505 62 260 0.0 0.0 0.00 0.00 0.00 68 1009.8
20260504223004 62 259 0.0 0.0 0.00 0.00 0.00 67 1009.8
20260504221505 62 293 0.0 0.0 0.00 0.00 0.00 67 1009.9
20260504220002 62 251 0.0 0.0 0.00 0.00 0.00 66 1009.9
20260504214604 63 251 0.0 0.0 0.00 0.00 0.00 65 1010.0
20260504213137 63 248 0.0 0.0 0.00 0.00 0.00 64 1010.1
20260504211605 63 272 0.0 0.0 0.00 0.00 0.00 63 1010.1
20260504210057 64 249 0.0 0.0 0.00 0.00 0.00 62 1010.2
20260504204558 64 253 0.0 0.0 0.00 0.00 0.00 62 1010.2
20260504203117 64 298 0.0 0.0 0.00 0.00 0.00 61 1010.2
20260504201555 65 260 0.0 0.0 0.00 0.00 0.00 60 1010.0
20260504200053 65 284 0.0 0.0 0.00 0.00 0.00 59 1010.0
20260504194602 65 263 0.0 0.0 0.00 0.00 0.00 58 1009.9
20260504193059 65 263 0.0 0.0 0.00 0.00 0.00 58 1009.9
20260504191551 66 262 0.0 0.0 0.00 0.00 0.00 58 1009.9
20260504190109 66 298 0.0 0.0 0.00 0.00 0.00 57 1009.8
20260504184559 67 284 0.0 0.0 0.00 0.00 0.00 56 1009.8
20260504183049 67 262 0.0 0.0 0.00 0.00 0.00 55 1009.8
20260504181549 68 258 0.0 0.0 0.00 0.00 0.00 54 1009.8
20260504180048 68 254 0.0 0.0 0.00 0.00 0.00 53 1009.9
20260504174546 69 254 0.0 0.0 0.00 0.00 0.00 52 1009.9
20260504173050 69 273 0.0 0.0 0.00 0.00 0.00 51 1009.9
20260504171543 70 281 0.0 0.0 0.00 0.00 0.00 50 1009.9
20260504100104 71 191 0.0 0.0 0.00 0.00 0.00 46 1012.7